{"data":{"norad_id":40043,"epoch":"2026-05-25T03:22:16.075776Z","epoch_age_seconds":73587,"freshness":"FRESH","line1":"1 40043U 14033AK  26145.14046384  .00001943  00000+0  22886-3 0  9995","line2":"2 40043  97.7804 295.6859 0050151 148.9105 211.5095 14.85046913642200","mean_motion":14.85046913,"eccentricity":0.0050151,"inclination_deg":97.7804,"raan_deg":295.6859,"arg_perigee_deg":148.9105,"mean_anomaly_deg":211.5095,"bstar":0.00022886,"rev_number":64220,"period_min":96.966633672939,"perigee_km":578.37516603418,"apogee_km":648.50206778692,"semimajor_km":6991.5756169106,"source":"CELESTRAK","updated_at":"2026-05-25T13:38:25.523256Z"}}